Location: Wald
(31.7579°N, 86.6655°W)
Time: 12:14:03
(UTC+00:00)

ATLAS CENTAUR R/B - Pass Details

Date: 14 July 2020
Orbit: 475 x 672 km, 64.7° (Epoch: 13 July)

Event Time Altitude Azimuth Distance (km) Brightness Sun altitude
Rises 01:23:57 0° 348° (NNW) 2,533 5.4 -6.5°
Reaches altitude 10° 01:26:29 10° 5° (N) 1,644 4.1 -6.9°
Maximum altitude 01:29:18 21° 56° (NE) 1,123 2.7 -7.5°
Drops below altitude 10° 01:32:07 10° 106° (ESE) 1,647 3.1 -8.0°
Enters shadow 01:32:12 10° 107° (ESE) 1,672 3.2 -8.0°
